Weather History for KEVM - July, 2013

Change the Weather History Date:

Saturday, July 20, 2013

  Actual Average (KELO) Record (KELO)
Temperature  
Mean Temperature 60 °F -  
Max Temperature 69 °F 74 °F - (-1)
Min Temperature 50 °F 52 °F - (-1)
Degree Days  
Heating Degree Days 6    
Growing Degree Days 10 (Base 50)    
Moisture  
Dew Point 45 °F    
Average Humidity 59    
Maximum Humidity 94    
Minimum Humidity 38    
Precipitation  
Precipitation 0.00 in - - ()
Sea Level Pressure  
Sea Level Pressure 29.99 in    
Wind  
Wind Speed 5 mph (NNE)    
Max Wind Speed 9 mph    
Max Gust Speed -    
Visibility 10 miles    
Events      
Averages and records for this station are not official NWS values.
T = Trace of Precipitation, MM = Missing Value Source: NWS Daily Summary

Daily Weather History Graph

Daily Weather History Graph

Search for Another Location

Airport or City:

Trip Planner

Search our weather history database for the weather conditions in past years. The results will help you decide how hot, cold, wet, or windy it might be!

Date:

Astronomy

Jul. 20, 2013 Rise Set
Actual Time 5:34 AM CDT 8:58 PM CDT
Civil Twilight 4:56 AM CDT 9:35 PM CDT
Nautical Twilight 4:06 AM CDT 10:25 PM CDT
Astronomical Twilight 3:01 AM CDT 11:29 PM CDT
Moon 7:00 PM CDT (7/20) 3:14 AM CDT (7/20)
Length of Visible Light 16h 39m
Length of Day
15h 23m
Waxing Gibbous, 94% of the Moon is Illuminated
Jul 20
Waxing Gibbous
Jul 22
Full
Jul 29
Last Quarter
Aug 6
New
Aug 14
First Quarter

Hourly Weather History & Observations

Time (CDT) Temp. Dew Point Humidity Pressure Visibility Wind Dir Wind Speed Gust Speed Precip Events Conditions
12:08 AM 62.6 °F 48.2 °F 59% 29.88 in 10.0 mi North 8.1 mph - N/A   Clear
12:29 AM 62.6 °F 46.4 °F 55% 29.89 in 10.0 mi North 5.8 mph - N/A   Clear
12:48 AM 60.8 °F 44.6 °F 55% 29.90 in 10.0 mi North 6.9 mph - N/A   Clear
1:08 AM 59.0 °F 44.6 °F 59% 29.90 in 10.0 mi NNW 5.8 mph - N/A   Clear
1:28 AM 59.0 °F 42.8 °F 55% 29.91 in 10.0 mi NNW 5.8 mph - N/A   Clear
1:48 AM 59.0 °F 42.8 °F 55% 29.91 in 10.0 mi North 4.6 mph - N/A   Clear
2:09 AM 57.2 °F 41.0 °F 55% 29.90 in 10.0 mi North 5.8 mph - N/A   Clear
2:28 AM 57.2 °F 42.8 °F 59% 29.91 in 10.0 mi NNW 5.8 mph - N/A   Clear
2:48 AM 57.2 °F 42.8 °F 59% 29.91 in 10.0 mi North 4.6 mph - N/A   Clear
3:09 AM 57.2 °F 42.8 °F 59% 29.92 in 10.0 mi Calm Calm - N/A   Clear
3:28 AM 55.4 °F 44.6 °F 67% 29.92 in 10.0 mi Calm Calm - N/A   Clear
3:48 AM 53.6 °F 42.8 °F 67% 29.92 in 10.0 mi Calm Calm - N/A   Clear
4:09 AM 51.8 °F 42.8 °F 71% 29.93 in 10.0 mi Calm Calm - N/A   Clear
4:28 AM 51.8 °F 44.6 °F 76% 29.93 in 10.0 mi NNE 4.6 mph - N/A   Clear
4:48 AM 51.8 °F 42.8 °F 71% 29.93 in 10.0 mi North 6.9 mph - N/A   Clear
5:08 AM 53.6 °F 42.8 °F 67% 29.93 in 10.0 mi North 3.5 mph - N/A   Clear
5:28 AM 51.8 °F 42.8 °F 71% 29.95 in 10.0 mi NNE 3.5 mph - N/A   Clear
5:49 AM 51.8 °F 44.6 °F 76% 29.95 in 10.0 mi Calm Calm - N/A   Clear
6:08 AM 51.8 °F 44.6 °F 76% 29.97 in 10.0 mi North 3.5 mph - N/A   Clear
6:28 AM 51.8 °F 44.6 °F 76% 29.98 in 10.0 mi Calm Calm - N/A   Clear
6:49 AM 51.8 °F 44.6 °F 76% 29.98 in 10.0 mi Calm Calm - N/A   Clear
7:08 AM 53.6 °F 46.4 °F 77% 29.99 in 10.0 mi Calm Calm - N/A   Clear
7:28 AM 53.6 °F 44.6 °F 72% 29.99 in 10.0 mi NE 3.5 mph - N/A   Clear
7:48 AM 53.6 °F 44.6 °F 72% 30.00 in 10.0 mi NE 4.6 mph - N/A   Clear
8:08 AM 57.2 °F 46.4 °F 67% 30.01 in 10.0 mi NNE 3.5 mph - N/A   Clear
8:28 AM 57.2 °F 42.8 °F 59% 30.01 in 10.0 mi ENE 5.8 mph - N/A   Clear
8:47 AM 59.0 °F 44.6 °F 59% 30.02 in 10.0 mi ENE 6.9 mph - N/A   Clear
9:08 AM 59.0 °F 42.8 °F 55% 30.02 in 10.0 mi NE 4.6 mph - N/A   Clear
9:28 AM 59.0 °F 42.8 °F 55% 30.02 in 10.0 mi North 5.8 mph - N/A   Clear
9:48 AM 60.8 °F 42.8 °F 52% 30.02 in 10.0 mi NNE 4.6 mph - N/A   Clear
10:09 AM 62.6 °F 44.6 °F 52% 30.03 in 10.0 mi North 4.6 mph - N/A   Clear
10:29 AM 62.6 °F 44.6 °F 52% 30.03 in 10.0 mi North 3.5 mph - N/A   Clear
10:48 AM 62.6 °F 42.8 °F 48% 30.03 in 10.0 mi NNW 4.6 mph - N/A   Clear
11:08 AM 62.6 °F 42.8 °F 48% 30.03 in 10.0 mi NNE 3.5 mph - N/A   Scattered Clouds
11:29 AM 62.6 °F 42.8 °F 48% 30.03 in 10.0 mi North 5.8 mph - N/A   Scattered Clouds
11:48 AM 62.6 °F 42.8 °F 48% 30.03 in 10.0 mi NE 3.5 mph - N/A   Mostly Cloudy
12:08 PM 64.4 °F 44.6 °F 49% 30.03 in 10.0 mi NNW 6.9 mph - N/A   Mostly Cloudy
12:29 PM 64.4 °F 44.6 °F 49% 30.02 in 10.0 mi West 4.6 mph - N/A   Mostly Cloudy
12:48 PM 64.4 °F 44.6 °F 49% 30.02 in 10.0 mi NW 3.5 mph - N/A   Mostly Cloudy
1:08 PM 64.4 °F 44.6 °F 49% 30.02 in 10.0 mi NW 6.9 mph - N/A   Scattered Clouds
1:29 PM 64.4 °F 44.6 °F 49% 30.01 in 10.0 mi ENE 3.5 mph - N/A   Clear
1:48 PM 66.2 °F 44.6 °F 46% 30.01 in 10.0 mi North 4.6 mph - N/A   Clear
2:08 PM 68.0 °F 44.6 °F 43% 30.01 in 10.0 mi NE 9.2 mph - N/A   Clear
2:28 PM 68.0 °F 44.6 °F 43% 30.01 in 10.0 mi ENE 6.9 mph - N/A   Clear
2:48 PM 68.0 °F 42.8 °F 40% 30.01 in 10.0 mi NNE 5.8 mph - N/A   Clear
3:09 PM 66.2 °F 42.8 °F 43% 30.00 in 10.0 mi ENE 5.8 mph - N/A   Clear
3:28 PM 69.8 °F 44.6 °F 40% 30.00 in 10.0 mi ENE 3.5 mph - N/A   Clear
3:48 PM 69.8 °F 44.6 °F 40% 30.00 in 10.0 mi North 5.8 mph - N/A   Clear
4:08 PM 69.8 °F 44.6 °F 40% 30.00 in 10.0 mi North 4.6 mph - N/A   Clear
4:28 PM 69.8 °F 44.6 °F 40% 30.00 in 10.0 mi North 5.8 mph - N/A   Clear
4:48 PM 69.8 °F 44.6 °F 40% 29.99 in 10.0 mi East 3.5 mph - N/A   Clear
5:08 PM 69.8 °F 42.8 °F 38% 29.99 in 10.0 mi Calm Calm - N/A   Clear
5:28 PM 69.8 °F 44.6 °F 40% 29.99 in 10.0 mi NNE 5.8 mph - N/A   Clear
5:48 PM 69.8 °F 46.4 °F 43% 29.99 in 10.0 mi NNE 6.9 mph - N/A   Clear
6:08 PM 68.0 °F 44.6 °F 43% 29.99 in 10.0 mi North 5.8 mph - N/A   Clear
6:28 PM 68.0 °F 42.8 °F 40% 29.99 in 10.0 mi North 3.5 mph - N/A   Clear
6:48 PM 68.0 °F 42.8 °F 40% 30.00 in 10.0 mi North 4.6 mph - N/A   Clear
7:08 PM 68.0 °F 44.6 °F 43% 30.00 in 10.0 mi ESE 4.6 mph - N/A   Clear
7:28 PM 64.4 °F 46.4 °F 52% 30.00 in 10.0 mi SE 6.9 mph - N/A   Mostly Cloudy
7:48 PM 62.6 °F 46.4 °F 55% 30.00 in 10.0 mi SE 5.8 mph - N/A   Scattered Clouds
8:08 PM 60.8 °F 48.2 °F 63% 30.00 in 10.0 mi SSE 5.8 mph - N/A   Clear
8:28 PM 59.0 °F 46.4 °F 63% 30.00 in 10.0 mi SE 4.6 mph - N/A   Clear
8:48 PM 59.0 °F 48.2 °F 67% 30.00 in 10.0 mi Calm Calm - N/A   Clear
9:08 PM 57.2 °F 50.0 °F 77% 30.01 in 10.0 mi Calm Calm - N/A   Clear
9:28 PM 53.6 °F 50.0 °F 88% 30.01 in 10.0 mi Calm Calm - N/A   Clear
9:48 PM 51.8 °F 48.2 °F 88% 30.02 in 10.0 mi Calm Calm - N/A   Clear
10:08 PM 51.8 °F 48.2 °F 88% 30.03 in 10.0 mi Calm Calm - N/A   Clear
10:28 PM 51.8 °F 50.0 °F 94% 30.03 in 10.0 mi NE 3.5 mph - N/A   Clear
10:48 PM 50.0 °F 46.4 °F 87% 30.03 in 10.0 mi ENE 3.5 mph - N/A   Clear
11:08 PM 51.8 °F 46.4 °F 82% 30.03 in 10.0 mi Calm Calm - N/A   Clear
11:28 PM 51.8 °F 48.2 °F 88% 30.03 in 10.0 mi NE 4.6 mph - N/A   Clear
11:48 PM 50.0 °F 46.4 °F 87% 30.03 in 10.0 mi NE 3.5 mph - N/A   Clear